Weather Roundup
Issued by NWS

Home | Current Version | Previous Version | Text Only | Print | Product List | Glossary On
Versions: 1 2 3 4 5 6 7 8 9 10 11 12 13 14 15 16 17 18 19 20 21 22 23 24 25 26 27 28 29 30 31 32 33 34 35 36 37 38 39 40 41 42 43 44 45 46 47 48 49 50
000
NZUS93 KARX 200759
HRRWXR

CURRENT HOURLY OBSERVATIONS ACROSS
MUCH OF THE UPPER MISSISSIPPI VALLEY
NATIONAL WEATHER SERVICE LA CROSSE WI
300 AM CDT MON OCT 20 2014


...SOUTHEAST MINNESOTA...


CITY           SKY/WX    TMP DP  RH WIND       PRES   REMARKS
ROCHESTER      CLEAR     48  41  76 NW8       29.90R
ROCHESTER/MAYO FAIR      51  40  65 NW14      29.89R
WINONA         CLEAR     48  43  81 CALM      29.86R
AUSTIN         CLEAR     48  41  76 NW8       29.90R
ALBERT LEA     CLEAR     52  43  71 NW6       29.92R
DODGE CENTER   CLEAR     48  43  81 NW10      29.90R
PRESTON        CLEAR     48  41  77 NW13      29.88R
OWATONNA       CLEAR     43  37  81 CALM      29.92R
FARIBAULT      CLEAR     48  43  81 NW5       29.92R
$$

...ELSEWHERE IN MINNESOTA...


CITY           SKY/WX    TMP DP  RH WIND       PRES   REMARKS
MINNEAPOLIS    PTCLDY    49  41  74 NW7       29.91R
INTNL FALLS    PTCLDY    34  34 100 CALM      29.88R
DULUTH         CLEAR     47  40  76 NW13      29.83R
RED WING       CLEAR     50  43  76 W5        29.88R
REDWOOD FALLS  CLEAR     46  38  73 W9        29.95S
MANKATO        CLEAR     50  37  62 NW7       29.94R
WORTHINGTON    CLEAR     43  36  75 NW5       30.00R
FAIRMONT       CLEAR     48  36  61 NW9       29.95S
$$

...SOUTHWEST WISCONSIN...


CITY           SKY/WX    TMP DP  RH WIND       PRES   REMARKS
LA CROSSE      CLEAR     49  43  80 N8        29.83R
PRAIRIE DU CHI CLEAR     49  42  79 W6        29.83R
BOSCOBEL       CLEAR     47  43  86 SW5       29.82R
LONE ROCK      NOT AVBL
PLATTEVILLE    CLEAR     48  44  86 CALM      29.83F
FORT MC COY    PTCLDY    42  41  97 W6        29.82R
VIROQUA        FAIR      48  43  82 NW6       29.82R
WIS DELLS      CLEAR     47  42  81 W3        29.78F
$$

...ELSEWHERE IN WISCONSIN...


CITY           SKY/WX    TMP DP  RH WIND       PRES   REMARKS
MILWAUKEE      PTCLDY    50  42  74 SW8       29.80R
MADISON        CLEAR     51  43  74 CALM      29.78F
GREEN BAY      CLEAR     45  42  89 SW3       29.75F
EAU CLAIRE     CLEAR     50  41  71 NW9       29.84R
BLACK RVR FLS  FAIR      48  42  79 NW5       29.81R
MEDFORD        CLEAR     42  40  91 NW7       29.80R
WAUSAU         CLEAR     42  41  96 NW7       29.76R
WIS RAPIDS     CLEAR     39  38  96 CALM      29.78S
MARSHFIELD     PTCLDY    47  43  86 N10       29.78R
RICE LAKE      CLEAR     48  40  74 CALM      29.86R
$$

...NORTHEAST IOWA...


CITY           SKY/WX    TMP DP  RH WIND       PRES   REMARKS
DECORAH        CLEAR     50  43  76 CALM      29.85R
MASON CITY     CLEAR     46  40  79 NW8       29.94R
CHARLES CITY   CLEAR     48  43  81 NW8       29.90R
OELWEIN        CLEAR     46  43  87 NW9       29.87R
$$

...ELSEWHERE IN IOWA...


CITY           SKY/WX    TMP DP  RH WIND       PRES   REMARKS
DES MOINES     CLEAR     52  46  80 NW7       29.94R
IOWA CITY      CLEAR     45  42  89 W6        29.89R
FORT DODGE     CLEAR     50  39  66 N5        29.96R
$$

...NORTHERN ILLINOIS...


CITY           SKY/WX    TMP DP  RH WIND       PRES   REMARKS
CHICAGO-OHARE  PTCLDY    50  43  77 SW10      29.84F
CHICAGO-MIDWAY CLOUDY    51  45  79 SW10      29.85F
MOLINE         CLEAR     51  43  74 W8        29.86S
ROCKFORD       CLEAR     47  42  83 S7        29.85S
PEORIA         CLEAR     50  44  80 SW7       29.90F
$$

NOTE: "FAIR" INDICATES FEW OR NO CLOUDS BELOW 12,000 FEET WITH NO
SIGNIFICANT WEATHER AND/OR OBSTRUCTIONS TO VISIBILITY. WIND
SPEEDS ARE IN MILES-PER-HOUR.



USA.gov is the U.S. government's official web portal to all federal, state and local government web resources and services.